sat.trackr.live / text

‹ back to catalog

EXACTVIEW-1 (ADS-1B)

NORAD 38709 · 2012-039C

PAYLOAD ACTIVE UNKNOWN

§ Identity

Operator
Country
CA
Launch date
2012-07-22
Launch site
TYMSC
Launch vehicle
Mass (kg)
RCS (m²)
0.55

Purposes: earth_obs

External: N2YO · Heavens-Above · Gunter

§ Orbital elements

Epoch: 2026-05-24T22:17:57.180192Z

Period
101.05 min
Inclination
98.9749°
Eccentricity
0.0010022
Mean motion
14.24976639 rev/d
Perigee alt
801.4 km
Apogee alt
815.8 km
Semi-major
7,186.7 km
B*
5.9537e-5
RAAN
261.7974°
Arg perigee
235.1593°
Mean anomaly
124.8643°
Rev number
71,939

§ Raw data

EXACTVIEW-1 (ADS-1B)1 38709U 12039C   26144.92913403  .00000093  00000+0  59537-4 0  99942 38709  98.9749 261.7974 0010022 235.1593 124.8643 14.24976639719392

JSON: /api/v1/satellites/38709 · /tle

For live sub-satellite position, see the globe view (requires WebGL).

§ Visibility from observer

Set your observer location to see the next 7 days of passes ≥ 10°. The values pass through the URL so the page stays shareable.

No JS? Fill the form by hand. The geolocation button needs JavaScript.